Location: Round Knob
(37.2473°N, 88.7376°W)
Time: 16:10:21
(UTC+00:00)

X-37B - Pass Details

Date: 30 September 2021
Orbit: 385 x 389 km, 45.0° (Epoch: 17 October)

Event Time Altitude Azimuth Distance (km) Brightness Sun altitude
Exits shadow 11:20:50 - 304° (NW) 1,838 3.5 -6.6°
Reaches altitude 10° 11:21:54 10° 308° (NW) 1,413 3.0 -6.4°
Maximum altitude 11:24:57 42° 22° (NNE) 560 1.6 -5.8°
Drops below altitude 10° 11:28:00 10° 96° (E) 1,410 5.3 -5.2°
Sets 11:30:08 0° 103° (ESE) 2,264 6.5 -4.7°
